Location: Northcutt
(34.7304°N, 84.4305°W)
Time: 09:23:23
(UTC+00:00)

A-11 Canister half - Pass Details

Date: 07 October 2022
Orbit: 1524 x 1685 km, 47.3° (Epoch: 30 November)

Event Time Altitude Azimuth Distance (km) Brightness Sun altitude
Rises 21:47:21 0° 278° (W) 4,670 12.7 16.4°
Reaches altitude 10° 21:50:42 10° 286° (WNW) 3,689 12.1 15.7°
Maximum altitude 21:59:14 39° 353° (N) 2,159 9.9 14.1°
Drops below altitude 10° 22:07:56 10° 60° (ENE) 3,751 10.5 12.4°
Sets 22:11:22 0° 68° (ENE) 4,757 10.9 11.7°
